GSLWP EGBW-EGLF

Flight info

Callsign GSLWP
Flight time 0h 37m
Altitude 3000
Route VFR
Aircraft I103/L-SFG/C

Departure

Time 2026-05-06 16:24
Airport Wellesbourne Mountford Airfield (EGBW)

Arrival

Time 2026-05-06 17:02
Airport Farnborough Airport (EGLF)
Time Latitude Longitude Altitude Speed Heading
2026-05-06 16:18 52.19056 -1.61782 164 ft 0 kts 283°
2026-05-06 16:20 52.19064 -1.61801 164 ft 5 kts 335°
2026-05-06 16:21 52.19089 -1.61802 164 ft 2 kts 359°
2026-05-06 16:21 52.19092 -1.61802 164 ft 0 kts 359°
2026-05-06 16:21 52.19108 -1.61815 164 ft 10 kts 306°
2026-05-06 16:21 52.19113 -1.61794 164 ft 8 kts 183°
2026-05-06 16:22 52.19030 -1.61820 164 ft 14 kts 193°
2026-05-06 16:22 52.18948 -1.61854 165 ft 14 kts 192°
2026-05-06 16:22 52.18859 -1.61881 166 ft 11 kts 187°
2026-05-06 16:22 52.18780 -1.61884 167 ft 11 kts 168°
2026-05-06 16:23 52.18765 -1.61875 167 ft 0 kts 150°
2026-05-06 16:23 52.18745 -1.61853 167 ft 7 kts 144°
2026-05-06 16:23 52.18697 -1.61766 168 ft 11 kts 65°
2026-05-06 16:23 52.18741 -1.61731 169 ft 6 kts 45°
2026-05-06 16:24 52.18885 -1.61493 166 ft 60 kts 46°
2026-05-06 16:24 52.19266 -1.60856 274 ft 88 kts 44°
2026-05-06 16:24 52.19691 -1.60184 540 ft 88 kts 31°
2026-05-06 16:24 52.20036 -1.60004 822 ft 84 kts
2026-05-06 16:25 52.20067 -1.59999 825 ft 85 kts
2026-05-06 16:25 52.20700 -1.59746 932 ft 103 kts 38°
2026-05-06 16:25 52.20754 -1.58605 930 ft 119 kts 122°
2026-05-06 16:25 52.20007 -1.58063 980 ft 123 kts 181°
2026-05-06 16:26 52.19268 -1.58642 1056 ft 118 kts 230°
2026-05-06 16:26 52.18770 -1.59681 1221 ft 114 kts 234°
2026-05-06 16:26 52.18236 -1.60629 1360 ft 115 kts 211°
2026-05-06 16:26 52.17447 -1.60703 1447 ft 119 kts 169°
2026-05-06 16:27 52.16622 -1.60508 1591 ft 119 kts 169°
2026-05-06 16:27 52.15805 -1.60360 1726 ft 117 kts 167°
2026-05-06 16:27 52.14998 -1.60195 1860 ft 117 kts 169°
2026-05-06 16:27 52.14193 -1.59953 1986 ft 117 kts 162°
2026-05-06 16:28 52.13397 -1.59675 2150 ft 117 kts 164°
2026-05-06 16:28 52.12603 -1.59428 2317 ft 115 kts 167°
2026-05-06 16:28 52.11804 -1.59212 2399 ft 118 kts 167°
2026-05-06 16:28 52.11004 -1.58985 2508 ft 120 kts 167°
2026-05-06 16:29 52.10174 -1.58661 2640 ft 124 kts 157°
2026-05-06 16:29 52.09351 -1.58279 2835 ft 121 kts 159°
2026-05-06 16:29 52.08555 -1.57883 3054 ft 118 kts 157°
2026-05-06 16:29 52.07766 -1.57451 3151 ft 124 kts 156°
2026-05-06 16:30 52.06938 -1.56987 3211 ft 128 kts 158°
2026-05-06 16:30 52.06375 -1.56664 3225 ft 131 kts 157°
2026-05-06 16:30 52.05204 -1.56020 3237 ft 134 kts 158°
2026-05-06 16:30 52.04319 -1.55605 3318 ft 131 kts 162°
2026-05-06 16:31 52.03452 -1.55228 3314 ft 127 kts 162°
2026-05-06 16:31 52.02611 -1.54876 3254 ft 126 kts 162°
2026-05-06 16:31 52.01740 -1.54553 3188 ft 128 kts 165°
2026-05-06 16:31 52.00881 -1.54272 3203 ft 123 kts 166°
2026-05-06 16:32 52.00033 -1.54039 3180 ft 124 kts 168°
2026-05-06 16:32 51.99168 -1.53860 3121 ft 126 kts 169°
2026-05-06 16:32 51.98299 -1.53704 3122 ft 124 kts 171°
2026-05-06 16:32 51.97435 -1.53538 3067 ft 126 kts 171°
2026-05-06 16:33 51.96568 -1.53367 3048 ft 126 kts 169°
2026-05-06 16:33 51.95698 -1.53170 3036 ft 127 kts 169°
2026-05-06 16:33 51.94824 -1.52986 3027 ft 127 kts 169°
2026-05-06 16:34 51.93065 -1.52605 2962 ft 132 kts 169°
2026-05-06 16:34 51.92156 -1.52407 2981 ft 130 kts 169°
2026-05-06 16:34 51.91302 -1.52217 3000 ft 127 kts 169°
2026-05-06 16:34 51.90385 -1.52004 3004 ft 126 kts 169°
2026-05-06 16:35 51.89530 -1.51810 3007 ft 125 kts 169°
2026-05-06 16:35 51.88662 -1.51608 3004 ft 127 kts 168°
2026-05-06 16:35 51.87787 -1.51392 3021 ft 126 kts 163°
2026-05-06 16:35 51.87044 -1.50737 3036 ft 121 kts 134°
2026-05-06 16:36 51.86412 -1.49850 3004 ft 121 kts 134°
2026-05-06 16:36 51.85792 -1.48946 2971 ft 119 kts 133°
2026-05-06 16:36 51.85187 -1.48030 2931 ft 119 kts 132°
2026-05-06 16:36 51.84596 -1.47101 2888 ft 119 kts 129°
2026-05-06 16:37 51.84064 -1.46344 2832 ft 122 kts 138°
2026-05-06 16:37 51.83788 -1.46015 2793 ft 122 kts 135°
2026-05-06 16:37 51.83103 -1.45220 2705 ft 119 kts 141°
2026-05-06 16:37 51.82450 -1.44442 2651 ft 118 kts 138°
2026-05-06 16:38 51.81797 -1.43662 2619 ft 116 kts 134°
2026-05-06 16:38 51.81158 -1.42857 2570 ft 116 kts 135°
2026-05-06 16:38 51.80531 -1.42036 2507 ft 116 kts 133°
2026-05-06 16:38 51.79915 -1.41192 2463 ft 116 kts 131°
2026-05-06 16:39 51.79318 -1.40317 2412 ft 116 kts 130°
2026-05-06 16:39 51.78735 -1.39421 2355 ft 116 kts 130°
2026-05-06 16:39 51.78167 -1.38500 2304 ft 116 kts 130°
2026-05-06 16:39 51.77600 -1.37590 2203 ft 116 kts 131°
2026-05-06 16:40 51.77015 -1.36693 2144 ft 115 kts 131°
2026-05-06 16:40 51.76431 -1.35805 2031 ft 117 kts 131°
2026-05-06 16:40 51.75847 -1.34902 1919 ft 116 kts 131°
2026-05-06 16:40 51.75258 -1.34014 1850 ft 115 kts 132°
2026-05-06 16:41 51.74673 -1.33132 1781 ft 115 kts 129°
2026-05-06 16:41 51.74085 -1.32243 1715 ft 117 kts 131°
2026-05-06 16:41 51.73486 -1.31353 1647 ft 116 kts 130°
2026-05-06 16:41 51.72900 -1.30461 1527 ft 117 kts 128°
2026-05-06 16:42 51.72292 -1.29596 1444 ft 116 kts 132°
2026-05-06 16:42 51.71657 -1.28815 1358 ft 114 kts 135°
2026-05-06 16:42 51.71055 -1.27998 1274 ft 110 kts 131°
2026-05-06 16:42 51.70527 -1.27169 1422 ft 104 kts 122°
2026-05-06 16:43 51.70038 -1.26297 1550 ft 105 kts 121°
2026-05-06 16:43 51.69564 -1.25378 1794 ft 109 kts 123°
2026-05-06 16:43 51.69046 -1.24446 2045 ft 117 kts 137°
2026-05-06 16:43 51.68380 -1.23638 2265 ft 121 kts 138°
2026-05-06 16:44 51.67713 -1.22787 2409 ft 125 kts 142°
2026-05-06 16:44 51.66998 -1.21972 2623 ft 125 kts 143°
2026-05-06 16:44 51.66284 -1.21198 2856 ft 123 kts 139°
2026-05-06 16:44 51.65600 -1.20375 3064 ft 123 kts 130°
2026-05-06 16:45 51.64936 -1.19411 3158 ft 132 kts 130°
2026-05-06 16:45 51.64318 -1.18353 3281 ft 132 kts 126°
2026-05-06 16:45 51.63728 -1.17147 3326 ft 134 kts 118°
2026-05-06 16:45 51.63198 -1.15941 3394 ft 135 kts 117°
2026-05-06 16:46 51.62733 -1.14641 3489 ft 133 kts 114°
2026-05-06 16:46 51.62076 -1.13589 3559 ft 140 kts 151°
2026-05-06 16:46 51.61145 -1.13117 3627 ft 139 kts 160°
2026-05-06 16:46 51.60207 -1.12690 3641 ft 141 kts 162°
2026-05-06 16:47 51.59263 -1.12240 3603 ft 144 kts 159°
2026-05-06 16:47 51.58291 -1.11714 3485 ft 150 kts 158°
2026-05-06 16:47 51.57339 -1.11123 3501 ft 146 kts 154°
2026-05-06 16:47 51.56442 -1.10557 3427 ft 133 kts 157°
2026-05-06 16:48 51.55600 -1.10084 3260 ft 128 kts 159°
2026-05-06 16:48 51.54744 -1.09571 2962 ft 135 kts 153°
2026-05-06 16:48 51.53911 -1.09041 2895 ft 124 kts 154°
2026-05-06 16:48 51.53131 -1.08519 2819 ft 119 kts 149°
2026-05-06 16:49 51.52382 -1.08016 2731 ft 113 kts 152°
2026-05-06 16:49 51.51668 -1.07531 2657 ft 109 kts 149°
2026-05-06 16:49 51.51018 -1.06953 2588 ft 107 kts 140°
2026-05-06 16:49 51.50359 -1.06385 2521 ft 109 kts 148°
2026-05-06 16:50 51.49662 -1.05860 2464 ft 111 kts 152°
2026-05-06 16:50 51.48980 -1.05259 2375 ft 113 kts 141°
2026-05-06 16:50 51.48283 -1.04643 2296 ft 113 kts 147°
2026-05-06 16:50 51.47832 -1.04266 2303 ft 108 kts 149°
2026-05-06 16:51 51.46932 -1.03533 2210 ft 109 kts 152°
2026-05-06 16:51 51.46236 -1.03057 2163 ft 107 kts 151°
2026-05-06 16:51 51.45528 -1.02586 2069 ft 116 kts 150°
2026-05-06 16:51 51.44748 -1.02035 1987 ft 128 kts 148°
2026-05-06 16:52 51.43975 -1.01349 1996 ft 126 kts 142°
2026-05-06 16:52 51.43228 -1.00636 1901 ft 123 kts 147°
2026-05-06 16:52 51.42507 -0.99923 1838 ft 120 kts 143°
2026-05-06 16:52 51.41801 -0.99228 1792 ft 118 kts 143°
2026-05-06 16:53 51.41134 -0.98515 1831 ft 113 kts 141°
2026-05-06 16:53 51.40579 -0.97765 1932 ft 99 kts 122°
2026-05-06 16:53 51.40085 -0.96956 1875 ft 108 kts 142°
2026-05-06 16:53 51.39407 -0.96309 1793 ft 116 kts 147°
2026-05-06 16:54 51.38696 -0.95663 1767 ft 118 kts 139°
2026-05-06 16:54 51.38004 -0.94991 1775 ft 116 kts 143°
2026-05-06 16:54 51.37319 -0.94291 1767 ft 117 kts 140°
2026-05-06 16:54 51.36680 -0.93462 1675 ft 121 kts 135°
2026-05-06 16:55 51.36067 -0.92536 1583 ft 122 kts 129°
2026-05-06 16:55 51.35506 -0.91524 1486 ft 122 kts 130°
2026-05-06 16:55 51.34952 -0.90502 1398 ft 122 kts 125°
2026-05-06 16:55 51.34413 -0.89448 1322 ft 123 kts 122°
2026-05-06 16:56 51.34145 -0.88895 1314 ft 121 kts 117°
2026-05-06 16:57 51.33668 -0.87985 1277 ft 122 kts 124°
2026-05-06 16:57 51.33459 -0.86786 1263 ft 109 kts 83°
2026-05-06 16:57 51.33450 -0.85542 1154 ft 112 kts 86°
2026-05-06 16:57 51.33497 -0.84437 1261 ft 88 kts 66°
2026-05-06 16:58 51.33600 -0.83493 1032 ft 84 kts 73°
2026-05-06 16:58 51.33340 -0.82594 880 ft 103 kts 136°
2026-05-06 16:58 51.32730 -0.82806 804 ft 98 kts 250°
2026-05-06 16:58 51.32606 -0.83857 419 ft 91 kts 262°
2026-05-06 16:59 51.32419 -0.84733 323 ft 82 kts 253°
2026-05-06 16:59 51.32164 -0.85729 426 ft 104 kts 244°
2026-05-06 16:59 51.31569 -0.86287 725 ft 113 kts 180°
2026-05-06 16:59 51.30935 -0.85709 1064 ft 113 kts 128°
2026-05-06 17:00 51.30416 -0.84692 1290 ft 118 kts 121°
2026-05-06 17:00 51.30012 -0.83593 1513 ft 125 kts 131°
2026-05-06 17:00 51.29236 -0.83102 1439 ft 113 kts 161°
2026-05-06 17:00 51.28528 -0.82667 1216 ft 107 kts 149°
2026-05-06 17:01 51.27879 -0.82049 1050 ft 109 kts 143°
2026-05-06 17:01 51.27279 -0.81348 896 ft 104 kts 137°
2026-05-06 17:01 51.26940 -0.80460 642 ft 89 kts 105°
2026-05-06 17:01 51.26946 -0.79549 387 ft 78 kts 59°
2026-05-06 17:02 51.27191 -0.78823 266 ft 73 kts 69°
2026-05-06 17:02 51.27422 -0.78124 225 ft 66 kts 62°
2026-05-06 17:02 51.27589 -0.77650 230 ft 36 kts 66°
2026-05-06 17:02 51.27656 -0.77457 229 ft 15 kts 55°
2026-05-06 17:03 51.27737 -0.77435 227 ft 13 kts 352°
2026-05-06 17:03 51.27839 -0.77456 223 ft 16 kts 357°
2026-05-06 17:03 51.27940 -0.77484 218 ft 15 kts 355°
2026-05-06 17:03 51.28054 -0.77475 216 ft 15 kts 11°
2026-05-06 17:04 51.28162 -0.77483 215 ft 15 kts 347°
2026-05-06 17:04 51.28218 -0.77585 216 ft 11 kts 276°
2026-05-06 17:04 51.28216 -0.77647 217 ft 7 kts 259°
2026-05-06 17:04 51.28178 -0.77734 218 ft 17 kts 255°
2026-05-06 17:05 51.28145 -0.77839 218 ft 0 kts 136°
2026-05-06 17:05 51.28147 -0.77842 218 ft 2 kts 132°
2026-05-06 17:05 51.28165 -0.77877 218 ft 4 kts 164°
2026-05-06 17:06 51.28178 -0.77880 218 ft 0 kts 199°
2026-05-06 17:06 51.28179 -0.77879 218 ft 1 kts 201°